Flag for Germany Weather past 2 weeks in Schleswig, Schleswig-Holstein, Germany

Now
63 °F

Passing clouds.


Feels Like: 63 °F
Forecast: 65 / 82 °F
Wind: 3 mph from South

Location: Schleswig

Current Time: Aug 1, 2014 at 2:00:22 AM

Latest Report: Aug 1, 2014 at 1:00 AM


Visibility: 8 mi

Pressure: 29.93 "Hg

Humidity: 82%

Dew point: 58 °F

Location of SchleswigLocation

Historic Weather in Schleswig — Graph

°F

Schleswig temperature yesterday

Maximum temperature yesterday: 75 °F (at 3:00 PM)
Minimum temperature yesterday: 58 °F (at 5:00 AM)
Average temperature yesterday: 66 °F

Past Weeks' High & Low Weather Summary

 TemperatureHumidityPressure
High83 °F (Jul 19, 2:00 PM)98% (Jul 28, 6:00 AM)30.23 "Hg (Jul 28, 6:00 AM)
Low51 °F (Jul 17, 5:00 AM)30% (Jul 22, 2:00 PM)29.79 "Hg (Jul 30, 4:00 AM)
Average70 °F68%30.00 "Hg
* Reported Jul 17 1:00 AM — Aug 1 1:00 AM, Schleswig, Weather by CustomWeather, © 2014

Note: Actual official high and low records may vary slightly from our data, if they occured in-between our weather recording intervals... More about our weather records

Advertising

Schleswig weather history for previous 24 hours

 ConditionsComfort  
Time TempWeatherWind HumidityBarometerVisibility
1:00 AM
Aug 1
63 °FPassing clouds.3 mph82%29.93 "Hg7 mi
12:00 AM64 °FPassing clouds.2 mph82%29.93 "Hg7 mi
11:00 PM
Jul 31
65 °FPassing clouds.3 mph79%29.92 "Hg9 mi
10:00 PM67 °FOvercast.2 mph75%29.92 "Hg11 mi
9:00 PM69 °FOvercast.2 mph69%29.92 "Hg11 mi
8:00 PM69 °FPartly sunny.5 mph65%29.92 "Hg16 mi
7:00 PM72 °FScattered clouds.5 mph60%29.92 "Hg16 mi
6:00 PM72 °FScattered clouds.7 mph56%29.92 "Hg16 mi
5:00 PM74 °FScattered clouds.7 mph48%29.93 "Hg19 mi
4:00 PM75 °FScattered clouds.7 mph48%29.93 "Hg22 mi
3:00 PM75 °FScattered clouds.6 mph48%29.92 "Hg22 mi
2:00 PM73 °FPartly sunny.7 mph55%29.92 "Hg22 mi
1:00 PM71 °FScattered clouds.7 mph58%29.92 "Hg22 mi
12:00 PM69 °FPartly sunny.6 mph65%29.92 "Hg19 mi
11:00 AM69 °FPartly sunny.7 mph66%29.91 "Hg19 mi
10:00 AM66 °FPartly sunny.5 mph73%29.91 "Hg19 mi
9:00 AM64 °FOvercast.5 mph76%29.90 "Hg16 mi
8:00 AM63 °FOvercast.5 mph82%29.90 "Hg16 mi
7:00 AM61 °FPartly sunny.3 mph85%29.89 "Hg16 mi
6:00 AM59 °FPartly sunny.2 mph91%29.89 "Hg16 mi
5:00 AM58 °FPassing clouds.3 mph93%29.89 "Hg16 mi
4:00 AM59 °FPassing clouds.2 mph90%29.88 "Hg19 mi
3:00 AM60 °FPassing clouds.3 mph87%29.88 "Hg22 mi
2:00 AM58 °FClear.2 mph89%29.88 "Hg22 mi
Weather by CustomWeather, © 2014

See weather overviewHow to use our weather pages